Temp
2 2 2 1 1 1 1 2 2 2 2 2 2 2 2 2 2 2 2 2 2 2 2 2 2 2 2 2 2 2 2 2 2 1 1 1 1 0 0 0 0 0 0 0 0 0 0 0 0 1 1 1 1 1 1 1 1 1 1 2 2 2 2 2 2 2 2 2 2 2 2 2 2 2 2 2 2 2 2 2 2 2 2 2 2 2
1 1 1 1 1 1 1 2 2 2 2 2 2 2 2 2 2 2 2 2 2 2 2 2 2 2 2 1 1 1 1 1 1 1 1 0 0 0 0 0 0 0 0 0 0 0 0 0 1 1 1 1 1 1 1 1 1 1 1 1 1 1 2 2 2 2 2 2 2 2 2 2 1 1 1 1 1 1 1 2 2 2 2 2 2 2
-0 -0 0 0 0 1 1 1 1 1 1 2 1 1 2 2 2 2 2 2 2 2 2 2 2 1 1 1 1 1 1 1 1 0 0 -0 -0 0 0 0 0 0 0 0 0 0 0 0 1 1 1 1 1 1 1 1 1 1 1 1 1 1 1 1 1 1 1 1 1 1 1 1 1 1 1 1 1 1 1 2 2 2 2 2 2 2
-0 0 0 0 0 0 1 1 1 1 1 1 1 1 1 1 2 2 2 2 2 2 2 2 2 2 2 2 2 1 1 1 0 -0 -0 -0 -0 -0 -0 0 0 0 0 0 0 0 0 0 0 0 0 1 1 1 1 1 1 1 1 1 1 1 1 1 1 1 1 1 1 1 1 1 1 1 1 1 1 1 1 1 1 1 1 2 2 2
-0 0 0 0 0 0 0 1 1 1 1 1 1 1 1 1 1 1 1 1 1 1 1 1 1 1 1 1 1 1 1 0 -0 -0 -0 -0 -0 -0 0 0 0 0 0 0 0 0 0 0 0 0 0 0 0 0 1 1 1 1 1 1 1 1 1 1 1 1 1 1 1 1 1 1 1 1 1 1 1 1 1 1 1 1 1 1 1 2
-0 -0 0 0 0 0 0 0 1 1 1 1 1 1 1 1 1 1 1 1 1 1 1 1 1 1 0 0 0 0 0 0 -0 -1 -1 -1 -0 -0 -0 0 0 0 0 0 0 0 0 0 0 0 0 0 0 0 1 1 1 1 1 1 1 1 1 1 0 0 0 0 0 0 0 0 0 0 0 1 1 1 1 1 1 1 1 1 1 1
-0 -0 -0 0 0 0 0 0 0 0 1 1 1 1 1 1 1 1 1 0 0 0 0 0 0 -0 -0 -0 -0 -0 -0 -0 -0 -1 -1 -1 -1 -0 -0 -0 -0 -0 0 -0 -0 -0 -0 -0 -0 -0 -0 -0 0 0 0 0 0 0 0 0 0 0 0 0 0 0 0 0 0 0 0 0 0 0 0 0 0 0 1 1 1 1 1 1 1 1
-0 -0 -0 -0 0 0 0 0 0 0 0 0 0 0 0 0 0 0 0 0 -0 -0 -0 -0 -0 -0 -0 -0 -0 -0 -0 -0 -0 -0 -0 -1 -1 -1 -0 -0 -0 -0 -0 -0 -0 -0 -0 -0 -0 -0 -0 -0 -0 -0 -0 0 -0 -0 -0 -0 -0 -0 -0 -0 -0 -0 -0 -0 -0 -0 -0 -0 -0 0 0 0 0 0 0 0 1 1 1 1 1 1
0 -0 -0 -0 0 0 0 0 0 0 0 -0 -0 -0 -0 -0 -0 -0 -0 -0 -0 -0 -0 -0 -0 -0 -0 -0 -0 -0 -0 -0 -0 -0 -0 -1 -1 -1 -0 -0 -0 -0 -0 -0 -0 -0 -1 -1 -1 -1 -1 -1 -1 -1 -1 -1 -1 -1 -1 -1 -1 -1 -1 -1 -1 -1 -0 -0 -0 -0 -0 -0 -0 -0 -0 0 0 0 0 0 0 0 1 1 1 1
0 0 -0 -0 -0 0 0 -0 -0 -0 -0 -0 -0 -0 -0 -0 -0 -0 -0 -0 -0 -0 -0 0 0 0 0 0 0 0 0 -0 -0 -0 -1 -1 -1 -1 -0 -0 -0 -0 -0 -0 -0 -1 -1 -1 -1 -1 -1 -1 -1 -1 -1 -1 -1 -1 -1 -1 -1 -1 -1 -1 -1 -1 -1 -1 -1 -0 -0 -0 -0 -0 -0 0 0 0 0 0 0 0 0 0 1 1
-0 -0 -0 -0 -0 -0 -0 -0 -0 -0 -0 -0 -0 -0 -0 -0 -0 -0 0 0 0 0 0 0 0 0 0 0 0 0 0 -0 -0 -1 -1 -1 -1 -1 -1 -0 -0 -0 -0 -0 -0 -1 -1 -1 -1 -1 -1 -1 -1 -2 -2 -2 -1 -1 -1 -1 -1 -1 -1 -1 -1 -1 -1 -1 -1 -1 -1 -0 -0 -0 -0 -0 0 0 0 0 0 0 0 0 0 0
-0 -0 -0 -0 -0 -0 -0 -0 -0 -0 -0 -0 -0 -0 0 0 0 0 0 0 1 1 0 0 0 0 0 0 0 0 -0 -0 -1 -1 -1 -1 -1 -1 -1 -1 -0 -0 -0 -1 -1 -1 -1 -1 -1 -1 -1 -1 -2 -2 -2 -2 -1 -1 -1 -1 -1 -1 -1 -1 -1 -1 -1 -1 -1 -1 -1 -0 -0 -0 -0 -0 0 0 0 0 0 0 0 0 0 0
-0 -0 -0 -0 -0 -0 -0 -0 -0 -0 0 0 0 0 0 0 0 0 0 0 0 0 0 0 0 0 -0 -0 -0 -0 -1 -1 -1 -1 -1 -1 -1 -1 -1 -1 -1 -1 -1 -1 -1 -1 -1 -1 -1 -1 -1 -2 -2 -2 -1 -1 -1 -1 -1 -1 -1 -1 -1 -1 -1 -1 -1 -1 -1 -1 -1 -0 -0 -0 -0 -0 -0 0 0 0 0 0 0 0 0 0
-0 -0 -0 -0 -0 -0 -0 -0 0 0 0 0 0 0 0 0 0 0 0 0 0 0 -0 -0 -0 -0 -0 -1 -1 -1 -1 -1 -1 -1 -1 -1 -1 -1 -1 -1 -1 -1 -1 -1 -1 -1 -1 -1 -1 -2 -2 -2 -1 -1 -1 -1 -1 -1 -1 -1 -1 -1 -1 -1 -1 -1 -1 -1 -1 -1 -1 -0 -0 -0 -0 -0 -0 -0 0 0 0 0 0 0 0 0
-1 -0 -0 -0 -0 -0 -0 -0 -0 0 0 -0 -0 -0 -0 -0 -0 0 0 0 0 -0 -0 -0 -1 -1 -1 -1 -1 -1 -1 -1 -1 -1 -1 -1 -1 -1 -1 -1 -1 -1 -1 -1 -1 -1 -1 -2 -2 -2 -2 -2 -1 -1 -1 -1 -1 -1 -1 -1 -1 -1 -1 -1 -1 -1 -1 -1 -1 -1 -1 -1 -1 -1 -0 -0 -0 -0 -0 -0 -0 0 0 0 0 0
-1 -0 -0 -0 -0 -0 -0 -0 -0 -0 -0 -0 -0 -0 -0 -0 -0 -0 -0 -0 -0 -1 -1 -1 -1 -1 -1 -1 -1 -1 -1 -1 -1 -1 -1 -1 -1 -1 -1 -1 -1 -1 -1 -1 -1 -1 -2 -2 -2 -2 -2 -2 -2 -2 -2 -2 -1 -1 -1 -2 -2 -2 -2 -1 -1 -1 -1 -1 -1 -1 -1 -1 -1 -1 -1 -1 -0 -0 -0 -0 -0 -0 -0 -0 -0 -0
-0 -0 -0 -0 -0 -0 -0 -0 -0 -0 -0 -0 -0 -0 -0 -1 -1 -1 -1 -1 -1 -1 -1 -1 -1 -0 -0 -1 -1 -1 -1 -2 -2 -2 -2 -2 -2 -2 -2 -2 -2 -2 -1 -1 -1 -2 -2 -2 -2 -2 -2 -2 -2 -2 -2 -2 -2 -2 -2 -2 -2 -2 -2 -2 -1 -1 -1 -1 -1 -1 -1 -1 -1 -1 -1 -1 -1 -1 -1 -1 -1 -1 -0 -0 -0 -0
-1 -1 -0 -0 -0 -0 -0 -0 -0 -0 -0 -1 -1 -1 -1 -1 -1 -1 -1 -1 -1 -1 -1 -2 -1 -1 -1 0 -1 -2 -2 -2 -2 -2 -2 -2 -2 -2 -2 -2 -2 -2 -2 -1 -2 -2 -2 -2 -2 -2 -2 -2 -2 -2 -2 -2 -2 -2 -2 -2 -2 -2 -1 -1 -1 -1 -1 -1 -1 -1 -1 -1 -1 -1 -1 -1 -1 -1 -1 -1 -1 -1 -1 -1 -1 -1
-1 -1 -1 -1 -1 -1 -1 -1 -1 -1 -1 -1 -1 -1 -1 -1 -1 -1 -2 -2 -2 -2 -2 -2 -2 -2 -2 -1 -1 -2 -2 -2 -2 -3 -3 -3 -3 -2 -2 -3 -2 -2 -2 -2 -2 -2 -2 -2 -2 -2 -2 -2 -2 -2 -2 -2 -2 -1 -1 -1 -1 -1 -1 -1 -1 -2 -1 -1 -1 -1 -1 -1 -1 -1 -1 -1 -1 -1 -1 -1 -1 -1 -1 -1 -1 -1
-1 -1 -1 -1 -1 -1 -1 -1 -1 -1 -1 -2 -2 -2 -2 -2 -2 -2 -2 -2 -2 -2 -2 -2 -2 -2 -2 -2 -2 -3 -3 -3 -3 -3 -3 -3 -3 -3 -3 -3 -3 -3 -2 -2 -2 -2 -2 -2 -2 -2 -2 -2 -2 -2 -1 -1 -1 -1 -1 -1 -1 -1 -2 -2 -2 -2 -2 -2 -1 -1 -1 -1 -1 -1 -1 -1 -1 -1 -1 -1 -1 -1 -1 -1 -1 -1
-1 -1 -1 -1 -1 -1 -2 -2 -2 -2 -2 -2 -2 -2 -2 -2 -2 -2 -2 -2 -2 -2 -2 -3 -3 -3 -3 -3 -3 -3 -3 -3 -3 -4 -4 -4 -4 -3 -3 -3 -3 -3 -3 -2 -2 -2 -2 -2 -2 -2 -2 -2 -2 -1 -1 -1 -1 -1 -1 -1 -2 -2 -2 -2 -2 -2 -2 -2 -2 -2 -2 -1 -1 -1 -2 -2 -2 -2 -2 -2 -2 -2 -2 -2 -2 -1
-1 -1 -1 -1 -1 -2 -2 -2 -2 -2 -2 -2 -2 -2 -2 -2 -2 -2 -2 -2 -3 -3 -3 -3 -3 -3 -4 -4 -4 -4 -4 -4 -4 -4 -4 -4 -4 -4 -3 -4 -4 -3 -3 -3 -3 -3 -3 -3 -2 -2 -2 -2 -1 -1 -1 -1 -1 -1 -1 -2 -2 -2 -2 -2 -2 -2 -2 -2 -2 -2 -2 -2 -2 -2 -2 -2 -2 -2 -2 -2 -2 -2 -2 -2 -2 -2
-1 -2 -2 -2 -2 -2 -2 -2 -2 -2 -2 -2 -2 -2 -2 -3 -3 -3 -3 -3 -3 -3 -3 -3 -4 -4 -4 -4 -4 -4 -4 -4 -4 -5 -5 -5 -4 -4 -4 -4 -4 -4 -4 -3 -3 -3 -3 -3 -2 -2 -2 -1 -1 -1 -1 -1 -1 -1 -2 -2 -2 -2 -2 -2 -2 -2 -2 -2 -2 -2 -2 -2 -2 -2 -2 -2 -2 -2 -2 -2 -2 -2 -2 -2 -2 -2
-2 -2 -2 -2 -2 -2 -2 -3 -3 -3 -3 -3 -3 -3 -3 -3 -3 -3 -3 -3 -3 -3 -4 -4 -4 -4 -4 -4 -4 -4 -4 -4 -5 -5 -5 -5 -5 -4 -4 -4 -5 -4 -4 -4 -4 -4 -3 -2 -2 -1 -1 -1 -1 -1 -1 -1 -1 -2 -2 -2 -3 -3 -2 -2 -2 -2 -2 -2 -2 -2 -2 -2 -2 -2 -2 -2 -2 -2 -2 -2 -2 -2 -2 -2 -2 -2
-2 -2 -2 -3 -3 -3 -3 -3 -3 -3 -3 -3 -3 -3 -3 -3 -3 -3 -3 -3 -3 -4 -4 -5 -5 -5 -5 -5 -5 -5 -5 -5 -5 -5 -5 -5 -5 -5 -5 -5 -5 -5 -5 -4 -4 -4 -3 -2 -1 -1 -1 -1 -1 -1 -1 -1 -2 -2 -3 -3 -3 -3 -3 -3 -3 -3 -3 -3 -3 -3 -3 -3 -3 -3 -3 -3 -3 -3 -3 -2 -2 -2 -2 -2 -2 -2
-3 -3 -3 -3 -3 -3 -3 -3 -3 -3 -3 -3 -3 -3 -3 -3 -3 -3 -3 -4 -4 -4 -4 -5 -5 -5 -5 -6 -5 -5 -5 -5 -5 -5 -6 -6 -5 -5 -5 -5 -5 -5 -5 -5 -4 -3 -3 -2 -1 -1 -1 -1 -2 -2 -2 -2 -2 -3 -3 -3 -3 -3 -3 -3 -3 -3 -3 -3 -3 -3 -3 -3 -3 -3 -3 -3 -3 -3 -3 -3 -2 -2 -2 -2 -2 -2
-3 -3 -4 -3 -3 -3 -3 -3 -3 -3 -3 -3 -3 -3 -3 -3 -3 -4 -4 -4 -4 -4 -4 -5 -5 -5 -6 -5 -5 -5 -5 -5 -5 -6 -6 -6 -6 -6 -5 -5 -5 -5 -5 -5 -4 -4 -3 -2 -2 -2 -2 -2 -2 -2 -2 -2 -3 -3 -3 -3 -3 -2 -2 -2 -3 -3 -3 -3 -3 -3 -3 -3 -3 -3 -3 -3 -3 -3 -3 -3 -3 -3 -2 -2 -2 -2
-3 -3 -3 -4 -4 -4 -4 -3 -3 -3 -3 -3 -3 -3 -4 -4 -4 -4 -4 -4 -4 -4 -4 -5 -5 -5 -5 -5 -5 -5 -5 -5 -5 -5 -6 -6 -6 -6 -5 -5 -5 -6 -6 -5 -4 -4 -3 -3 -3 -3 -3 -3 -3 -3 -3 -3 -3 -3 -3 -3 -3 -3 -3 -3 -3 -3 -3 -3 -3 -3 -3 -3 -3 -3 -3 -3 -3 -3 -3 -3 -3 -3 -3 -3 -3 -3
-4 -4 -4 -4 -4 -4 -4 -4 -4 -4 -3 -3 -3 -4 -4 -4 -4 -4 -4 -4 -4 -4 -4 -5 -5 -5 -5 -5 -5 -5 -5 -5 -5 -5 -6 -6 -6 -6 -5 -5 -6 -6 -6 -6 -5 -4 -3 -3 -3 -4 -4 -4 -3 -3 -3 -3 -3 -3 -3 -3 -3 -3 -3 -3 -3 -3 -3 -3 -3 -3 -3 -3 -3 -3 -3 -3 -3 -3 -3 -3 -3 -3 -3 -3 -3 -3
-4 -4 -4 -4 -4 -4 -4 -4 -4 -4 -4 -3 -4 -4 -4 -4 -4 -4 -4 -5 -5 -5 -5 -5 -5 -5 -5 -5 -5 -5 -5 -5 -5 -5 -6 -6 -6 -5 -5 -6 -6 -6 -7 -7 -6 -6 -5 -4 -4 -4 -4 -4 -4 -3 -3 -3 -3 -3 -3 -3 -2 -3 -3 -3 -3 -3 -3 -3 -3 -3 -3 -3 -3 -3 -4 -4 -4 -4 -4 -3 -3 -3 -3 -3 -3 -4
-4 -4 -4 -4 -4 -4 -4 -4 -4 -4 -4 -4 -4 -4 -4 -4 -4 -5 -5 -5 -5 -5 -5 -5 -5 -5 -5 -5 -6 -6 -6 -5 -5 -6 -6 -6 -5 -5 -6 -6 -6 -7 -7 -7 -7 -7 -7 -6 -5 -4 -4 -4 -4 -4 -3 -3 -3 -3 -3 -3 -3 -3 -3 -3 -3 -3 -3 -3 -3 -4 -4 -4 -4 -4 -4 -4 -4 -4 -4 -4 -4 -4 -4 -4 -4 -4
-4 -4 -5 -5 -5 -5 -5 -4 -4 -4 -4 -4 -4 -4 -5 -5 -5 -5 -5 -5 -5 -5 -5 -5 -5 -5 -5 -5 -6 -6 -5 -5 -5 -5 -6 -6 -6 -6 -6 -7 -7 -7 -7 -7 -7 -7 -8 -7 -6 -5 -5 -5 -5 -5 -5 -4 -4 -4 -4 -4 -4 -4 -4 -4 -4 -4 -4 -4 -4 -4 -4 -4 -4 -4 -4 -4 -4 -4 -4 -4 -4 -4 -4 -4 -4 -4
-5 -5 -5 -5 -5 -5 -5 -5 -5 -5 -5 -5 -5 -5 -5 -5 -5 -5 -5 -5 -5 -5 -5 -5 -5 -5 -5 -5 -5 -5 -5 -5 -5 -5 -6 -6 -6 -6 -6 -7 -7 -7 -7 -7 -7 -7 -7 -7 -7 -6 -6 -6 -6 -6 -6 -5 -5 -5 -5 -5 -5 -5 -5 -5 -4 -4 -4 -4 -4 -4 -4 -4 -4 -4 -4 -4 -4 -4 -4 -4 -4 -4 -4 -4 -4 -4
-5 -5 -5 -5 -5 -5 -5 -5 -5 -5 -5 -5 -6 -6 -6 -6 -5 -5 -5 -5 -5 -5 -5 -5 -5 -5 -5 -5 -5 -5 -5 -5 -5 -6 -6 -6 -6 -6 -7 -7 -7 -7 -7 -7 -7 -7 -7 -7 -7 -6 -6 -6 -6 -6 -6 -6 -5 -5 -5 -5 -5 -5 -5 -5 -5 -5 -4 -4 -4 -4 -4 -4 -4 -4 -4 -4 -4 -5 -5 -5 -5 -5 -4 -4 -4 -4
-5 -5 -5 -5 -5 -5 -5 -5 -5 -5 -6 -6 -6 -6 -6 -6 -6 -6 -6 -6 -5 -5 -5 -5 -5 -5 -5 -5 -6 -6 -5 -5 -5 -6 -6 -6 -6 -6 -7 -7 -7 -7 -7 -7 -7 -7 -7 -6 -6 -6 -6 -6 -6 -6 -6 -6 -5 -5 -5 -5 -5 -5 -5 -5 -5 -5 -5 -4 -4 -4 -4 -4 -4 -5 -5 -5 -5 -5 -5 -5 -5 -5 -4 -4 -4 -4
-5 -5 -5 -5 -5 -5 -5 -5 -5 -6 -6 -6 -6 -6 -6 -6 -6 -6 -6 -6 -6 -6 -6 -6 -6 -6 -6 -6 -6 -6 -5 -5 -5 -6 -6 -6 -6 -7 -7 -7 -7 -7 -7 -7 -7 -7 -7 -7 -6 -6 -6 -6 -6 -6 -6 -5 -5 -6 -6 -6 -6 -6 -6 -5 -5 -5 -5 -5 -5 -5 -5 -5 -5 -5 -5 -5 -5 -5 -5 -5 -5 -5 -5 -5 -4 -4
-5 -5 -5 -5 -5 -6 -6 -6 -6 -6 -6 -6 -6 -6 -6 -6 -6 -6 -6 -6 -6 -6 -6 -6 -6 -6 -6 -6 -6 -6 -6 -6 -6 -6 -6 -6 -7 -7 -7 -7 -7 -7 -7 -7 -7 -7 -7 -7 -7 -6 -6 -6 -6 -6 -6 -6 -6 -6 -6 -6 -6 -6 -6 -6 -6 -5 -5 -5 -5 -5 -5 -5 -5 -5 -5 -5 -5 -5 -5 -5 -5 -5 -5 -5 -5 -5
-6 -6 -6 -6 -6 -6 -6 -6 -6 -6 -6 -6 -6 -6 -6 -6 -6 -6 -6 -6 -6 -6 -6 -6 -6 -6 -6 -6 -6 -6 -6 -6 -6 -6 -6 -7 -7 -7 -7 -7 -7 -7 -7 -7 -7 -7 -7 -7 -7 -7 -6 -6 -6 -6 -6 -6 -6 -6 -6 -6 -6 -6 -6 -6 -6 -5 -5 -5 -5 -5 -5 -5 -5 -5 -5 -5 -5 -5 -5 -5 -5 -6 -6 -6 -5 -5
-6 -6 -6 -6 -7 -7 -7 -7 -7 -7 -7 -7 -7 -7 -6 -6 -6 -6 -6 -6 -6 -6 -6 -6 -6 -6 -6 -6 -6 -6 -6 -6 -6 -7 -7 -7 -7 -7 -7 -7 -7 -7 -7 -7 -7 -7 -7 -7 -7 -7 -7 -6 -6 -6 -6 -6 -6 -6 -6 -6 -6 -6 -6 -6 -6 -6 -6 -6 -6 -6 -6 -6 -6 -6 -5 -5 -5 -5 -5 -6 -6 -6 -6 -6 -6 -6
-7 -7 -7 -7 -7 -7 -7 -7 -7 -7 -7 -7 -7 -7 -7 -7 -6 -6 -6 -6 -6 -6 -6 -6 -6 -6 -6 -6 -6 -6 -6 -7 -7 -7 -7 -7 -7 -7 -7 -7 -7 -7 -7 -7 -7 -7 -7 -7 -7 -7 -7 -7 -7 -6 -6 -6 -6 -6 -6 -6 -6 -6 -6 -6 -6 -6 -6 -6 -6 -6 -6 -6 -6 -6 -6 -6 -6 -6 -6 -6 -6 -6 -6 -6 -6 -6
-7 -7 -7 -7 -8 -8 -8 -8 -8 -8 -8 -7 -7 -7 -7 -7 -7 -6 -6 -6 -6 -6 -6 -6 -6 -6 -6 -6 -6 -6 -6 -7 -7 -7 -7 -7 -7 -7 -7 -7 -7 -7 -7 -7 -7 -7 -7 -7 -7 -7 -7 -7 -7 -7 -6 -6 -6 -6 -6 -6 -6 -6 -6 -6 -6 -6 -6 -6 -6 -6 -6 -6 -6 -6 -6 -6 -6 -6 -6 -6 -6 -6 -6 -6 -6 -6
-8 -8 -8 -8 -8 -8 -8 -8 -8 -8 -8 -8 -8 -8 -7 -7 -7 -7 -6 -6 -6 -6 -6 -6 -6 -6 -6 -6 -6 -6 -6 -6 -6 -7 -7 -7 -7 -7 -7 -7 -7 -7 -7 -7 -7 -7 -7 -7 -7 -7 -7 -7 -7 -7 -7 -6 -6 -6 -6 -6 -6 -6 -6 -6 -6 -6 -6 -6 -6 -6 -6 -6 -6 -6 -6 -6 -6 -6 -6 -6 -6 -6 -6 -6 -6 -6
-8 -8 -8 -8 -8 -9 -9 -9 -9 -9 -9 -8 -8 -8 -8 -8 -7 -7 -7 -6 -6 -6 -6 -7 -7 -7 -6 -6 -6 -6 -6 -6 -6 -7 -7 -7 -7 -7 -7 -7 -7 -7 -7 -7 -7 -7 -7 -7 -7 -7 -7 -7 -7 -7 -7 -7 -6 -6 -6 -6 -6 -6 -6 -6 -6 -6 -6 -6 -6 -6 -6 -6 -6 -6 -6 -6 -6 -6 -6 -6 -6 -6 -6 -6 -6 -6
-8 -8 -8 -9 -9 -9 -9 -9 -9 -9 -9 -9 -9 -8 -8 -8 -8 -8 -7 -7 -7 -7 -7 -7 -7 -7 -7 -8 -7 -7 -7 -7 -7 -7 -7 -7 -7 -7 -7 -7 -7 -7 -7 -7 -7 -7 -7 -7 -7 -7 -7 -7 -7 -7 -7 -7 -6 -6 -6 -6 -6 -6 -6 -6 -6 -6 -6 -6 -6 -6 -6 -6 -6 -6 -6 -6 -6 -6 -6 -6 -6 -6 -6 -6 -6 -6
-8 -8 -8 -9 -9 -9 -9 -9 -9 -9 -9 -9 -9 -8 -8 -8 -8 -8 -8 -8 -7 -7 -7 -7 -8 -8 -8 -8 -8 -8 -8 -8 -7 -7 -7 -7 -7 -7 -7 -7 -7 -7 -7 -7 -7 -7 -7 -7 -7 -7 -7 -7 -7 -7 -7 -7 -7 -6 -6 -6 -6 -6 -6 -6 -6 -6 -6 -6 -6 -6 -6 -6 -6 -6 -6 -6 -6 -6 -6 -6 -6 -6 -6 -6 -6 -6
-8 -8 -8 -8 -9 -9 -9 -9 -9 -10 -10 -9 -9 -9 -8 -8 -8 -8 -8 -8 -8 -8 -7 -8 -8 -8 -8 -8 -8 -8 -8 -8 -8 -7 -7 -7 -7 -7 -7 -7 -7 -7 -7 -7 -7 -7 -7 -7 -7 -7 -7 -7 -7 -7 -7 -7 -7 -7 -6 -6 -6 -6 -6 -6 -6 -6 -6 -6 -6 -6 -6 -6 -6 -6 -6 -6 -6 -6 -6 -6 -6 -6 -6 -6 -5 -5
-8 -8 -9 -9 -9 -9 -9 -9 -9 -10 -10 -10 -9 -9 -9 -8 -8 -8 -8 -8 -8 -8 -8 -8 -8 -8 -8 -8 -8 -8 -8 -8 -8 -8 -7 -7 -7 -7 -7 -7 -7 -7 -7 -7 -7 -7 -7 -7 -7 -7 -7 -7 -7 -7 -7 -7 -7 -7 -6 -6 -6 -6 -6 -6 -6 -6 -6 -6 -6 -6 -6 -6 -6 -6 -6 -6 -6 -6 -6 -5 -5 -5 -5 -5 -5 -5
-8 -9 -9 -9 -9 -9 -9 -9 -10 -10 -10 -10 -10 -9 -9 -8 -8 -8 -8 -8 -8 -8 -8 -8 -8 -8 -8 -8 -8 -8 -8 -8 -8 -8 -8 -7 -7 -7 -7 -7 -7 -7 -7 -7 -7 -7 -7 -6 -6 -7 -7 -7 -7 -7 -7 -7 -7 -6 -6 -6 -6 -6 -6 -6 -6 -6 -6 -6 -6 -6 -6 -6 -6 -6 -6 -6 -5 -5 -5 -5 -5 -5 -5 -5 -5 -5
-9 -9 -9 -9 -9 -9 -10 -10 -10 -10 -10 -10 -10 -10 -10 -9 -9 -9 -9 -8 -8 -8 -8 -8 -8 -8 -8 -8 -8 -8 -8 -8 -8 -8 -7 -7 -7 -7 -7 -7 -7 -7 -7 -7 -7 -7 -7 -7 -6 -6 -7 -7 -7 -7 -7 -7 -7 -6 -6 -6 -6 -6 -6 -6 -6 -6 -6 -6 -6 -5 -5 -6 -6 -6 -6 -6 -6 -5 -5 -5 -5 -5 -5 -5 -5 -5
-9 -9 -9 -9 -10 -10 -10 -10 -10 -10 -10 -10 -10 -10 -10 -10 -9 -9 -9 -9 -9 -8 -8 -8 -8 -8 -8 -8 -8 -8 -8 -8 -8 -8 -8 -7 -7 -7 -7 -7 -7 -7 -7 -7 -7 -7 -7 -6 -6 -6 -6 -6 -6 -6 -6 -6 -6 -6 -6 -6 -6 -6 -6 -6 -6 -6 -6 -6 -5 -5 -5 -5 -6 -6 -6 -6 -6 -6 -5 -5 -5 -5 -5 -5 -5 -5
-9 -9 -9 -9 -9 -9 -9 -10 -10 -10 -10 -10 -10 -10 -9 -9 -9 -9 -9 -9 -9 -9 -8 -8 -8 -8 -8 -8 -8 -8 -8 -8 -8 -8 -8 -7 -7 -7 -7 -7 -7 -7 -7 -7 -7 -6 -6 -6 -6 -6 -6 -6 -6 -6 -6 -6 -6 -6 -6 -6 -6 -6 -6 -6 -6 -6 -5 -5 -5 -5 -5 -5 -6 -6 -6 -6 -6 -6 -5 -5 -5 -5 -5 -5 -5 -5
Height
819 818 818 819 819 819 819 819 819 819 819 819 820 821 822 823 824 825 825 826 827 827 827 828 828 828 828 828 829 829 829 829 830 830 830 830 831 831 831 832 832 833 833 833 833 833 832 832 832 833 833 833 834 834 834 833 833 833 833 833 833 833 833 834 834 834 834 834 834 834 834 833 833 833 833 833 834 834 834 835 835 835 835 835 835 835
819 819 819 819 819 819 819 819 819 819 819 820 820 821 822 822 823 824 825 826 827 827 828 828 828 828 828 828 828 828 829 829 829 829 829 830 830 830 831 831 831 832 832 832 832 832 832 832 832 832 832 832 832 832 832 832 832 832 832 832 832 832 832 832 833 833 833 833 833 832 832 832 832 832 832 832 833 833 834 834 834 834 834 834 834 834
819 819 819 819 819 819 820 820 820 820 820 820 820 821 822 822 823 824 824 825 826 827 827 827 827 827 827 827 827 828 828 828 828 829 829 829 830 830 830 831 831 831 831 831 831 831 831 831 831 831 831 831 831 831 831 831 830 830 830 830 831 831 831 831 831 831 831 831 831 831 831 831 831 831 831 831 832 832 833 833 833 833 833 833 833 833
819 819 819 820 820 820 820 820 820 820 820 821 821 821 822 823 823 823 824 824 825 825 825 825 826 826 826 826 826 826 827 827 828 828 829 829 829 829 830 830 830 831 831 830 830 830 830 830 830 830 830 830 830 830 829 829 829 829 829 829 830 830 830 830 830 830 830 830 830 830 830 830 830 830 830 830 831 831 832 832 832 832 832 832 832 832
820 820 820 820 820 820 820 820 820 821 821 821 822 822 822 823 823 824 824 824 824 824 824 824 824 824 825 825 825 825 826 826 827 827 828 828 829 829 829 830 830 830 830 830 830 830 829 829 829 829 829 829 829 829 829 829 829 829 829 829 829 829 829 829 829 829 829 829 829 829 829 829 829 829 829 829 830 830 830 831 831 831 831 831 831 831
820 820 820 820 820 820 820 820 821 821 821 822 822 822 823 823 823 824 824 824 824 824 824 824 824 824 824 824 825 825 825 826 826 827 827 828 828 829 829 829 829 829 829 829 829 829 829 829 828 828 828 828 828 828 828 828 828 828 828 828 828 828 828 828 828 828 828 828 828 828 828 828 828 828 828 828 829 829 829 829 830 830 830 829 829 829
819 820 820 820 820 820 820 820 821 821 821 822 822 822 823 823 823 823 823 823 824 824 824 824 824 824 824 824 825 825 825 825 826 826 827 827 828 828 828 828 828 828 828 828 828 828 828 828 827 827 827 827 827 827 827 827 827 827 826 826 826 826 826 826 826 826 826 826 826 826 826 826 827 827 827 827 828 828 828 828 829 829 829 829 829 828
819 819 820 820 820 820 820 820 820 820 821 821 821 822 822 822 822 823 823 823 823 823 823 823 824 824 824 824 824 825 825 825 825 825 826 826 826 827 827 827 827 827 827 827 827 827 827 826 826 826 826 826 826 826 826 825 825 825 825 825 825 825 825 825 825 825 825 825 825 825 825 825 825 825 826 826 826 827 827 827 827 827 827 827 827 827
819 819 819 819 820 820 820 820 820 820 820 821 821 821 821 822 822 822 822 823 823 823 823 823 824 824 824 824 824 824 824 825 825 825 825 825 825 826 826 826 826 826 826 826 826 826 825 825 825 825 825 824 824 824 824 824 824 824 824 824 824 824 824 824 824 824 824 824 824 824 824 824 824 824 825 825 825 826 826 826 826 826 826 826 826 826
819 819 819 819 820 820 820 820 820 820 820 820 821 821 821 822 822 822 822 822 823 823 823 823 823 824 824 824 824 824 824 824 824 824 824 825 825 825 825 825 825 825 825 825 825 824 824 824 824 823 823 823 823 823 823 822 822 822 822 822 822 822 822 822 822 822 822 822 823 823 823 823 823 824 824 824 824 825 825 825 825 825 825 825 825 825
819 819 819 819 820 820 820 820 820 820 820 821 821 821 822 822 822 822 822 822 823 823 823 823 823 823 823 823 823 823 824 824 824 824 824 824 824 824 824 824 824 824 824 824 824 823 823 822 822 821 821 821 821 821 821 821 820 820 820 821 821 821 821 821 821 821 821 821 821 822 822 822 822 823 823 823 824 824 824 824 824 824 824 824 824 824
819 819 820 820 820 820 820 820 820 820 821 821 821 821 822 822 822 822 822 822 822 822 823 823 823 823 823 823 823 823 823 823 823 823 823 823 824 824 824 824 824 823 823 823 823 822 821 821 820 819 819 819 819 819 819 819 819 819 819 819 819 819 819 819 819 819 820 820 820 820 821 821 822 822 822 822 822 823 823 823 823 823 823 822 822 822
820 820 820 820 820 820 820 820 820 821 821 821 821 821 821 822 822 822 822 822 822 822 822 822 822 822 822 822 822 822 822 822 823 823 823 823 823 823 823 823 822 822 822 822 821 821 820 819 818 818 817 817 817 817 817 817 817 818 818 818 818 818 818 818 818 819 819 819 819 819 820 820 821 821 821 821 821 821 821 821 821 821 821 821 821 821
820 820 820 820 820 820 820 820 820 820 821 821 821 821 821 821 821 822 821 821 821 821 821 821 821 821 822 822 822 822 822 822 822 822 822 822 822 822 822 821 821 821 820 820 819 819 818 817 816 816 816 815 815 815 816 816 816 816 816 817 817 817 817 817 817 818 818 818 818 819 819 819 819 820 820 820 820 820 820 820 820 820 820 820 820 819
820 820 820 820 820 820 820 820 820 820 821 821 821 821 821 821 821 821 821 821 821 821 821 821 821 821 821 821 821 822 822 822 821 821 821 821 821 821 821 820 819 819 819 818 817 817 816 815 815 814 814 814 814 814 814 814 815 815 815 815 816 816 816 816 816 817 817 817 817 818 818 818 818 819 819 819 819 819 819 819 819 819 819 819 818 818
820 820 820 820 820 820 820 820 820 820 820 820 821 821 821 821 821 821 821 821 821 821 821 821 821 821 821 821 821 821 821 821 821 820 820 820 820 820 820 819 818 817 817 816 816 815 814 814 814 813 813 813 813 813 814 814 814 814 814 814 815 815 815 815 815 816 816 816 816 817 817 817 817 817 817 817 817 817 817 817 817 817 817 817 817 817
820 820 820 820 820 820 820 820 820 820 820 820 820 820 820 820 820 821 821 821 821 821 821 821 821 821 820 820 820 820 820 820 820 819 819 819 819 819 818 818 816 815 815 815 814 814 813 813 812 812 812 812 812 813 813 813 813 813 814 814 814 814 814 814 814 814 815 815 815 815 816 816 816 816 816 816 816 816 816 816 815 815 815 815 815 815
820 820 820 820 820 820 820 820 820 820 820 820 820 820 820 820 821 821 821 821 821 821 821 821 821 821 820 820 820 820 820 819 819 818 818 817 817 817 817 816 815 814 814 813 813 813 812 812 812 812 812 812 812 812 812 812 812 812 812 813 813 813 813 813 813 814 814 814 814 814 814 814 814 814 814 814 814 814 814 814 814 814 814 814 814 814
820 820 820 820 820 820 820 820 820 820 820 820 820 820 820 820 821 821 821 821 821 821 820 820 820 820 820 820 819 819 819 819 818 817 816 815 815 815 815 814 814 813 812 812 812 812 812 811 811 811 811 811 811 811 811 811 811 811 811 812 812 812 812 812 812 813 813 813 813 813 813 813 813 813 813 813 813 813 812 812 812 812 812 812 812 812
820 820 820 820 820 820 820 820 820 820 820 820 820 820 820 820 820 820 820 820 820 820 820 820 820 820 820 819 819 819 818 818 817 816 815 814 814 813 813 813 812 812 811 811 811 811 811 811 810 810 810 810 810 810 810 810 810 810 810 811 811 811 811 811 811 811 811 812 812 812 812 812 812 811 811 811 811 811 811 810 810 810 810 810 810 810
820 820 820 820 820 820 820 820 820 820 820 820 820 820 820 820 820 820 820 820 819 819 819 819 819 819 819 819 819 818 818 817 817 816 815 814 812 812 812 812 811 811 810 810 810 810 810 810 809 809 809 809 809 810 810 809 809 809 809 809 809 810 810 810 810 810 810 810 810 810 810 810 810 810 810 809 809 809 809 809 809 809 808 808 808 808
819 819 819 820 820 820 820 820 820 820 820 820 820 820 819 819 819 819 819 819 819 819 819 819 819 818 818 818 818 817 817 817 817 816 815 813 812 811 811 811 811 810 809 809 809 809 809 809 809 809 809 809 809 809 809 809 809 808 808 809 809 809 809 809 809 809 809 809 809 809 809 809 809 809 808 808 808 808 807 807 807 807 806 806 806 806
819 819 819 819 819 819 819 819 819 819 819 819 819 819 819 819 819 819 819 819 819 818 818 818 818 818 817 817 817 817 817 816 816 815 815 813 811 810 811 811 810 809 809 808 808 808 808 807 807 808 808 808 808 808 807 807 807 807 807 807 807 808 808 808 808 808 808 808 808 808 808 807 807 807 807 806 806 806 806 805 805 805 804 804 804 804
819 819 819 819 819 819 819 819 819 819 819 819 819 819 819 819 819 818 818 818 818 818 818 817 817 817 817 816 816 816 816 816 815 815 814 813 811 810 810 810 809 809 808 808 807 807 806 806 806 806 807 807 806 806 806 806 806 806 806 806 806 807 807 807 807 807 806 806 806 806 806 806 805 805 805 805 804 804 804 804 803 803 803 803 802 802
819 819 819 819 819 819 819 819 819 819 819 819 819 819 818 818 818 818 818 818 817 817 817 817 817 816 816 816 815 815 815 815 815 814 814 813 811 810 810 809 809 808 807 806 806 806 805 805 805 805 805 805 805 804 804 804 805 805 805 805 805 805 805 805 805 805 805 805 804 804 804 804 804 803 803 803 803 802 802 802 802 801 801 801 800 800
819 819 819 819 819 819 819 819 819 819 818 818 818 818 818 817 817 817 817 817 817 817 817 817 816 816 815 815 815 814 814 814 814 814 813 812 811 810 809 809 809 808 806 805 804 804 804 803 803 803 804 803 803 803 803 803 804 804 804 804 804 804 804 804 804 804 803 803 803 803 802 802 802 802 801 801 801 801 800 800 800 799 799 799 799 798
818 818 818 818 818 818 818 818 818 818 818 818 818 817 817 816 816 816 816 816 816 816 816 816 816 815 815 814 814 814 814 813 813 813 812 812 811 810 809 809 808 807 806 804 803 803 803 802 802 802 802 802 802 802 802 802 803 803 803 803 803 803 803 802 802 802 801 801 801 801 800 800 800 800 800 799 799 799 799 799 798 798 797 797 796 796
818 818 818 817 817 817 817 817 817 817 817 817 817 817 816 815 815 815 815 815 815 815 815 815 815 815 814 814 813 813 813 813 812 812 811 811 810 810 809 809 808 807 805 804 802 801 801 801 801 801 801 801 801 801 801 802 802 802 802 802 802 802 801 801 800 800 800 799 799 799 799 799 799 798 798 798 798 797 797 797 796 796 795 795 794 794
817 817 817 817 817 817 816 816 816 816 815 815 816 815 815 814 814 814 814 814 814 814 814 814 814 814 813 813 812 812 812 811 811 811 811 811 810 809 809 809 808 807 806 804 801 800 800 800 800 800 800 800 800 800 801 801 801 801 801 801 801 800 800 799 799 799 799 798 798 798 798 797 797 797 796 796 796 795 795 795 794 794 794 793 792 791
817 816 816 816 816 815 815 815 814 814 814 814 814 814 813 813 813 813 813 813 813 813 813 813 813 813 813 813 812 811 810 810 810 810 810 810 810 809 809 809 808 807 806 805 803 800 799 799 799 799 799 799 800 800 800 800 800 800 799 799 799 799 798 798 798 797 797 797 796 796 796 795 795 795 794 794 794 793 793 793 793 792 792 791 790 789
816 815 815 815 814 814 814 814 813 813 812 812 812 812 811 811 811 812 812 812 812 812 812 812 812 812 812 813 812 812 810 810 810 810 810 810 809 809 809 808 808 808 808 807 806 804 802 799 799 799 799 799 799 799 799 798 798 798 798 797 797 797 797 796 796 796 795 795 795 794 794 794 793 793 792 792 792 791 791 791 791 790 790 789 788 787
814 814 814 814 814 813 813 812 812 811 811 811 810 810 810 810 810 810 811 811 811 811 811 811 811 811 811 812 812 811 810 810 809 809 809 809 809 809 808 808 808 808 808 808 808 808 805 802 799 798 798 798 797 797 797 797 796 796 796 795 795 795 795 795 795 794 794 793 793 793 792 792 791 791 790 790 790 789 789 789 789 789 788 787 786 786
814 814 813 813 813 812 812 811 811 810 810 809 809 809 809 809 809 809 810 810 810 810 810 810 810 810 810 810 810 810 809 809 809 809 809 809 809 808 808 808 808 807 807 807 808 808 807 804 801 798 796 796 796 795 795 795 795 795 795 794 794 794 794 794 793 793 792 791 791 790 790 789 789 789 789 788 788 787 787 787 787 787 786 786 785 784
813 813 812 812 811 811 811 810 810 809 809 809 809 809 809 809 809 809 809 809 809 809 809 809 809 809 809 809 809 809 809 809 809 809 809 809 808 808 807 807 807 807 807 806 806 806 805 804 802 799 797 795 794 794 794 794 794 794 794 793 793 792 792 792 791 791 790 789 789 788 788 788 787 787 786 786 785 785 785 785 785 785 785 784 784 783
812 811 811 811 810 810 809 809 809 809 808 808 808 808 808 808 808 808 808 809 809 809 809 809 809 809 809 808 808 808 808 808 809 809 809 808 808 807 807 806 806 806 806 806 805 805 804 803 802 800 798 795 793 793 793 793 793 793 792 792 791 791 790 790 789 789 788 787 787 786 786 785 785 785 784 784 784 783 783 783 783 783 783 783 783 782
810 810 810 809 809 809 808 808 808 808 808 808 808 808 808 808 808 808 808 808 808 808 808 808 808 808 808 807 807 807 807 807 808 808 808 808 807 807 806 806 805 806 805 805 804 804 803 802 801 800 799 797 794 792 791 792 792 792 791 790 790 789 789 789 788 787 787 786 785 784 784 784 783 783 782 782 782 782 781 781 781 781 781 781 781 780
809 809 808 808 808 807 807 807 807 807 807 807 807 807 807 807 807 807 807 807 807 807 807 807 807 807 807 806 806 806 805 806 806 806 806 806 806 806 806 805 804 805 805 804 804 803 803 801 800 799 798 797 795 793 791 790 790 790 789 789 788 788 787 787 786 786 785 784 784 783 783 782 782 781 781 780 780 780 780 779 779 779 779 779 778 778
808 807 807 807 807 806 806 806 806 806 807 807 807 807 807 807 806 806 806 806 806 806 806 806 806 806 806 805 805 804 804 804 804 804 805 805 805 805 804 804 803 803 804 804 803 803 802 801 800 798 796 795 794 793 791 790 789 788 787 787 787 786 786 785 785 785 784 784 783 782 781 781 780 780 779 779 779 778 777 777 777 777 776 776 776 775
807 806 806 806 806 806 806 806 806 806 806 806 806 806 806 806 806 806 805 805 805 805 805 805 805 804 804 804 804 804 803 803 803 803 803 803 803 803 803 802 802 802 802 802 802 802 801 801 799 798 796 794 793 791 791 790 789 788 786 785 784 784 784 784 784 784 783 782 781 781 780 779 779 779 778 777 777 776 776 775 775 774 774 774 773 773
806 806 806 806 805 805 805 805 805 805 805 805 805 805 805 805 805 804 804 804 804 804 804 804 803 803 803 803 803 802 802 802 802 802 802 802 802 802 801 801 801 801 801 801 801 800 800 799 798 797 796 795 793 791 789 789 788 788 787 785 783 782 782 783 783 782 781 781 780 779 779 778 778 777 776 776 775 775 774 774 773 773 773 773 772 771
805 805 805 805 805 805 805 805 805 804 804 804 804 804 804 804 804 803 803 803 803 803 803 802 802 802 801 801 801 801 801 801 800 800 800 800 800 800 800 800 800 800 800 799 799 799 799 798 797 796 795 794 793 791 789 788 787 787 787 785 783 781 781 781 781 781 780 779 779 779 778 777 776 776 775 774 774 773 773 772 772 771 771 770 770 770
804 804 804 804 804 804 804 804 804 804 804 804 804 804 803 803 803 802 802 802 802 802 801 801 801 800 800 800 800 800 800 800 799 799 799 799 799 799 799 799 799 799 799 798 798 797 797 796 796 795 794 793 792 790 788 786 786 786 786 785 783 781 779 779 779 779 779 778 778 777 777 776 775 774 773 772 772 771 771 770 770 769 769 769 768 768
804 804 804 804 804 804 804 803 803 803 803 803 803 803 803 802 802 801 801 800 800 800 800 800 800 799 799 799 798 799 799 799 799 798 798 798 798 798 798 798 798 798 797 797 796 795 795 795 794 793 793 792 791 789 787 785 784 784 784 784 783 782 779 777 777 778 778 777 776 776 775 774 773 772 771 770 770 769 769 768 768 767 767 766 766 765
803 803 803 803 803 803 803 803 803 802 802 802 802 802 802 802 801 801 800 800 799 799 799 799 799 799 798 797 797 797 797 797 797 797 797 797 797 797 797 797 797 796 796 796 795 794 794 793 792 792 791 791 790 789 786 784 783 783 782 782 782 781 779 777 776 776 776 775 774 774 774 773 772 771 770 769 768 767 766 765 765 764 764 764 764 763
802 802 802 802 802 802 802 802 802 802 801 801 801 801 801 801 801 800 800 799 799 799 799 799 799 798 798 797 797 796 796 796 796 796 796 796 796 796 796 796 795 795 795 794 794 793 793 792 791 790 790 789 789 787 785 784 782 781 780 780 780 779 778 777 776 775 774 774 773 772 772 772 771 769 768 766 765 764 764 763 763 762 761 761 761 760
801 801 801 801 801 801 801 801 801 801 800 800 800 800 800 800 800 799 799 799 799 798 798 798 798 798 797 797 796 796 795 795 795 795 795 795 795 795 795 794 794 794 793 793 792 792 791 790 789 789 789 788 786 785 784 783 782 780 779 779 779 778 776 775 775 774 774 773 771 771 770 770 769 768 767 765 763 762 761 761 761 760 759 759 758 758
800 800 800 800 800 800 800 801 800 800 800 799 799 799 799 799 799 799 798 798 798 798 798 798 797 797 797 796 796 795 795 794 794 794 794 794 794 794 794 793 793 793 792 791 791 790 789 789 788 788 788 786 784 783 781 781 781 779 778 777 777 776 775 774 773 773 772 771 770 769 769 769 768 767 765 763 761 760 759 758 758 758 757 757 756 755
799 799 799 799 799 799 800 800 800 799 799 799 799 798 798 799 798 798 798 798 797 797 797 797 797 796 796 795 795 795 794 794 793 792 792 792 792 792 792 792 791 791 790 790 789 789 788 787 787 786 786 785 783 781 779 779 779 778 777 776 776 775 774 772 772 771 771 770 769 768 768 768 767 765 764 762 759 758 756 755 755 755 755 755 754 753
798 798 798 798 799 799 799 799 799 799 798 798 798 797 797 797 797 797 797 797 797 797 796 796 796 795 795 794 794 794 794 793 792 792 791 791 791 791 790 790 790 789 789 788 788 787 786 785 784 784 784 783 782 779 778 777 776 776 776 775 774 774 772 771 770 769 769 768 767 767 767 766 765 764 763 761 758 755 754 753 752 752 753 752 752 750
797 797 797 797 798 798 798 798 798 798 798 797 797 797 796 796 796 796 796 796 796 796 796 795 795 794 794 794 793 793 793 792 791 791 790 790 790 790 789 789 789 788 787 787 786 785 784 783 782 781 781 781 780 779 777 775 774 774 774 773 773 772 771 769 768 768 767 767 766 765 765 764 763 763 762 760 757 754 752 750 749 749 750 750 749 748
796 796 796 796 796 796 797 797 797 797 797 796 796 796 796 795 795 795 795 795 795 795 795 794 794 794 793 793 792 792 792 791 791 790 790 789 789 789 789 788 788 788 787 786 785 784 783 782 780 779 778 778 778 777 776 774 773 773 772 771 771 770 769 768 767 766 765 765 764 764 763 762 761 761 760 759 756 753 750 748 747 746 747 747 747 746
Wind_Speed
7 7 6 5 4 3 5 6 8 9 10 10 10 9 10 12 14 15 15 15 14 14 13 13 12 12 12 12 12 14 15 16 16 15 14 12 10 9 9 9 9 8 8 8 8 8 7 7 7 8 9 10 11 12 12 13 13 13 13 13 13 13 13 13 13 12 12 12 12 11 11 11 11 11 11 11 11 11 11 12 12 12 12 12 12 12
6 5 4 4 3 4 6 8 9 9 9 9 10 10 11 13 14 14 14 13 12 11 11 11 11 12 13 14 15 16 16 16 15 13 11 9 9 8 8 8 8 8 8 8 8 7 7 7 7 8 9 11 12 13 13 14 14 14 13 13 13 13 13 12 12 12 12 12 12 11 11 11 11 11 11 11 11 12 12 12 12 12 12 12 12 12
4 2 2 3 4 6 8 9 9 9 8 9 9 9 10 11 12 12 12 11 11 11 11 12 13 14 16 17 17 17 16 15 12 10 8 8 7 7 7 7 7 8 8 8 7 7 7 7 8 9 11 12 13 14 14 14 14 13 13 13 13 12 12 12 12 12 12 11 11 11 11 11 11 11 11 11 12 12 12 12 12 12 12 12 12 12
1 2 3 4 6 7 9 10 10 9 8 8 7 7 8 8 9 10 10 11 11 12 14 15 16 17 17 17 17 16 14 11 9 8 7 7 7 7 7 7 7 8 8 7 7 7 7 8 9 11 12 13 14 14 14 13 13 13 12 12 12 12 12 11 11 11 11 11 11 11 11 11 11 11 11 11 11 12 12 12 12 12 12 12 12 11
2 3 5 6 7 8 9 10 11 11 10 9 8 7 8 8 9 10 12 13 14 15 16 16 16 16 14 13 12 10 8 8 7 7 7 6 6 7 7 8 8 8 7 7 7 7 8 9 11 12 13 14 14 13 13 13 12 12 12 11 11 11 11 11 11 11 11 11 11 11 11 11 11 11 11 11 11 12 12 12 12 12 12 12 11 11
3 4 5 6 7 8 8 9 11 12 12 11 11 11 11 11 12 12 13 14 14 14 14 13 12 10 9 7 6 5 5 6 6 6 6 6 6 7 7 7 7 7 7 7 8 9 10 11 12 13 14 13 13 13 12 12 12 11 11 11 11 11 11 11 11 11 11 11 11 11 11 11 11 11 11 12 12 12 12 12 12 12 12 12 12 11
4 4 5 6 7 7 7 8 8 9 10 11 12 12 13 13 13 13 12 12 11 10 9 8 7 6 5 5 5 5 5 6 6 6 6 6 7 7 8 8 8 8 9 9 10 11 11 12 13 13 13 13 12 12 12 12 11 11 11 11 11 11 11 11 11 11 12 12 12 12 12 12 12 12 12 12 12 12 12 12 12 12 12 12 12 12
4 4 4 5 5 5 5 5 6 6 7 8 9 9 10 10 10 10 9 9 7 6 6 5 5 5 5 5 5 6 6 6 7 7 7 7 8 9 10 11 11 12 12 12 12 13 13 14 14 13 13 13 12 12 12 12 12 12 12 12 12 12 12 12 12 12 13 13 13 13 13 13 13 13 13 13 13 13 13 12 12 12 12 12 12 12
5 4 4 4 4 4 4 4 3 4 4 5 5 5 5 5 6 6 6 5 5 5 5 5 5 5 5 6 6 7 7 8 8 8 8 9 10 11 12 13 14 14 14 14 14 14 15 15 15 15 15 14 14 13 13 13 13 13 13 13 13 13 13 13 14 14 14 14 14 14 14 14 14 13 13 13 13 13 13 13 13 12 12 12 12 12
4 5 5 4 4 4 4 3 3 4 4 4 4 4 4 4 4 4 4 5 5 5 5 6 6 6 6 7 8 8 8 9 9 9 10 10 11 12 13 14 14 14 15 15 16 16 17 18 18 17 17 16 15 15 14 14 14 14 14 14 15 15 15 15 15 15 15 15 14 14 14 14 13 13 13 13 13 13 13 13 13 13 13 13 13 13
4 4 4 4 4 4 3 3 4 4 4 4 3 3 4 4 4 4 5 5 5 5 6 7 7 7 8 8 8 8 8 9 9 10 10 11 12 12 13 14 14 15 15 16 17 18 20 20 20 20 19 18 17 17 16 16 16 16 16 17 17 17 17 17 17 16 16 15 14 13 13 13 13 13 13 13 13 13 13 13 13 13 13 13 13 13
4 3 3 4 4 3 3 3 3 3 3 2 2 3 3 4 4 5 6 7 6 6 7 7 7 7 8 7 8 8 8 8 9 10 10 11 12 12 13 14 15 15 16 17 19 20 21 21 21 20 19 19 18 18 18 18 18 18 18 19 19 18 18 17 17 16 15 14 13 13 12 12 12 13 13 13 13 13 13 14 14 14 14 14 14 14
3 3 3 3 3 2 2 1 1 1 2 2 3 4 4 4 5 6 7 7 7 7 7 7 7 7 7 7 7 8 8 8 9 10 11 12 13 13 14 15 16 17 18 19 20 21 20 20 19 19 19 19 19 19 19 19 19 19 19 19 18 18 17 16 15 14 13 12 12 12 12 12 13 13 13 13 14 14 14 14 14 14 14 14 14 15
3 2 2 2 2 1 1 1 1 2 3 3 4 5 5 5 5 6 7 8 7 7 7 7 7 7 7 7 8 8 9 10 10 11 12 13 14 14 15 16 17 18 20 21 22 21 19 17 17 17 17 18 18 18 18 18 18 18 18 17 16 15 14 13 12 12 12 12 12 12 13 13 13 14 14 14 14 14 14 14 14 14 15 15 15 15
2 2 1 1 1 1 1 1 2 3 3 4 4 5 5 6 6 6 7 7 7 6 6 7 7 7 7 8 8 9 10 11 11 12 12 13 13 14 15 17 20 21 23 23 22 19 16 15 14 15 16 16 17 17 17 17 16 16 15 14 14 13 12 11 11 12 12 12 13 13 13 14 14 14 14 14 14 14 14 15 15 15 15 15 15 15
2 1 1 1 1 0 1 1 2 3 3 3 4 4 5 5 5 5 5 5 6 6 6 6 6 6 7 7 8 9 9 10 10 11 12 13 14 16 17 20 22 24 24 22 20 16 13 12 12 13 14 14 14 14 14 14 14 13 13 12 12 12 12 11 12 12 13 13 13 14 14 14 14 14 14 15 15 15 15 15 15 15 15 15 16 16
2 2 2 2 2 2 1 2 2 2 2 2 2 2 2 2 2 2 3 3 4 4 4 3 4 4 4 5 5 6 6 8 10 12 14 16 18 19 20 22 23 24 23 20 16 12 10 9 10 11 11 12 12 12 12 12 12 12 12 12 12 12 12 13 13 13 14 14 14 14 14 14 14 15 15 15 15 15 15 15 15 15 16 16 16 16
3 3 3 3 3 3 3 3 3 3 3 3 3 2 1 1 0 0 1 1 1 1 1 2 3 3 4 4 3 4 6 9 12 15 18 20 21 22 23 23 23 23 20 16 12 9 8 8 8 9 9 10 10 10 11 11 11 12 12 12 13 13 13 14 14 14 14 14 14 14 14 14 14 14 15 15 15 15 15 15 15 16 16 16 16 16
4 4 4 4 4 4 4 4 4 4 4 4 4 3 2 1 1 1 2 2 3 3 3 4 4 4 5 5 6 7 9 11 15 18 20 21 22 23 23 22 21 20 17 14 10 8 7 7 8 8 9 10 10 10 11 11 12 12 13 13 13 14 14 14 14 14 14 14 14 14 14 14 14 14 14 15 15 15 15 15 16 16 16 16 16 17
4 4 4 4 4 4 4 4 4 4 4 4 4 3 3 3 3 4 4 5 5 6 7 6 6 5 6 6 8 10 12 14 16 18 19 20 21 22 22 20 18 17 15 13 10 9 9 9 9 9 10 10 10 10 11 11 12 12 12 13 13 14 14 14 14 14 14 14 14 14 14 14 14 14 14 14 15 15 15 16 16 16 16 17 17 17
3 3 3 4 3 3 3 3 4 5 5 5 5 4 4 5 5 5 6 7 7 8 8 7 7 6 7 8 10 12 14 16 17 17 17 18 19 20 19 17 15 15 15 14 12 11 11 11 11 11 10 10 10 10 11 11 12 12 12 13 13 13 13 13 13 13 13 13 13 13 13 13 13 13 14 14 15 15 15 16 16 17 17 17 18 18
1 2 2 3 3 3 4 5 5 6 6 6 6 5 6 6 6 6 7 7 8 8 8 7 7 8 10 11 12 14 16 16 16 15 15 14 16 17 16 15 14 15 16 16 15 14 14 13 13 12 11 11 11 11 11 11 12 12 12 12 12 12 12 12 12 12 12 12 12 12 12 12 13 13 14 14 15 16 16 17 17 17 18 18 18 19
1 1 2 3 3 4 4 5 5 6 6 6 6 6 7 7 7 8 8 8 8 8 7 8 9 10 12 13 13 14 15 14 14 13 11 10 11 14 14 14 14 16 17 17 17 16 15 14 13 12 11 11 11 11 11 11 11 11 11 11 11 11 11 10 10 10 10 11 11 11 12 12 13 14 15 15 16 16 17 17 18 18 18 18 18 19
0 1 1 1 2 2 3 3 4 4 4 5 5 6 7 8 8 8 8 8 8 8 8 9 10 11 12 13 13 13 13 12 12 11 8 8 10 12 14 14 15 17 18 18 17 17 17 15 13 12 11 11 11 11 11 10 10 10 10 9 9 9 9 9 9 9 10 11 11 12 13 14 15 15 16 16 17 17 17 17 17 17 17 18 18 18
1 0 0 1 2 2 2 2 2 3 4 5 6 7 8 8 8 8 9 9 8 8 8 9 10 11 12 13 12 12 11 11 10 9 8 7 9 12 13 14 15 16 17 18 18 18 18 17 14 12 11 9 9 9 9 9 8 8 8 7 7 7 7 8 9 10 11 12 13 14 15 16 16 16 16 16 16 16 16 16 16 17 17 17 17 18
2 2 1 2 1 1 1 2 2 3 4 5 6 7 8 8 8 8 8 8 8 8 8 9 10 11 11 11 10 10 10 10 10 10 9 8 9 12 13 13 14 15 18 20 20 20 20 19 16 13 9 7 6 6 7 7 7 7 6 6 7 7 9 10 11 13 14 15 16 16 16 16 16 16 15 15 15 15 15 16 16 16 17 17 18 18
2 2 1 1 2 4 5 5 5 5 5 6 6 7 8 8 7 7 8 8 8 8 9 9 9 10 10 10 10 9 10 10 11 11 10 10 10 10 11 12 13 15 18 21 23 22 21 18 15 11 7 4 4 5 5 6 6 6 6 7 8 10 12 13 14 15 16 16 16 15 15 14 14 14 14 14 14 15 15 15 16 16 17 17 18 19
3 4 5 6 6 7 8 9 10 10 10 9 8 7 8 9 8 8 9 9 9 9 9 9 10 10 9 9 10 11 12 11 11 10 10 9 7 6 9 10 12 15 19 22 23 22 18 14 10 7 3 2 3 4 4 4 4 5 8 10 12 13 14 14 15 15 14 13 13 12 12 12 12 13 13 14 14 15 15 15 16 16 17 17 18 19
6 6 7 8 9 9 10 11 11 12 12 12 11 10 11 12 11 10 10 10 10 9 10 11 11 11 11 11 13 13 12 10 8 7 6 6 5 6 8 10 12 15 18 21 20 18 14 10 7 3 1 2 3 3 3 5 7 10 13 14 14 13 12 12 11 11 11 10 11 11 11 12 13 13 14 14 14 15 15 15 16 16 17 17 18 19
8 8 9 9 10 11 12 13 12 12 12 12 11 12 14 14 14 13 13 12 11 10 11 12 12 12 11 11 10 9 7 4 3 3 4 4 4 6 8 10 12 14 16 16 13 10 9 8 4 0 1 2 4 6 10 13 16 17 17 15 12 11 10 9 9 10 10 11 12 12 13 13 14 14 14 15 15 15 15 15 16 16 17 18 18 19
9 10 11 11 12 13 14 15 14 13 12 11 10 11 12 13 13 14 14 13 13 12 12 12 13 12 11 8 4 2 3 1 2 5 7 6 5 7 9 10 11 12 13 11 8 6 6 6 4 1 4 9 14 18 20 21 20 18 16 14 12 11 10 11 11 12 13 14 14 15 15 15 15 15 15 15 15 15 15 15 15 16 17 18 18 19
10 11 12 13 14 15 16 16 16 14 12 10 9 8 9 9 10 11 12 12 12 12 13 13 13 13 12 10 7 5 5 5 7 10 10 8 7 8 10 10 10 11 10 9 6 4 3 5 7 11 16 19 21 22 22 20 18 16 15 14 14 14 14 14 15 16 16 17 17 17 16 16 16 15 15 15 15 15 16 16 16 16 17 18 18 19
10 11 13 14 16 17 17 17 16 14 11 8 7 6 6 7 7 8 9 10 10 11 11 11 12 12 12 12 13 12 11 10 11 12 12 10 8 9 10 10 10 10 10 9 8 7 7 9 13 18 21 21 20 19 18 17 16 15 14 15 15 16 17 17 17 18 18 18 18 18 17 17 16 16 16 16 16 16 16 16 16 16 16 17 18 18
11 12 14 16 17 18 19 17 15 12 9 7 5 5 5 5 6 6 7 8 8 9 9 9 9 10 10 12 13 14 13 12 11 11 11 10 9 10 11 11 11 11 11 10 10 10 11 13 15 17 18 19 19 18 16 16 15 14 14 15 17 18 19 19 19 19 19 19 19 18 18 17 17 17 18 18 18 17 17 16 15 15 15 16 17 18
15 16 18 19 19 19 18 16 13 10 7 5 5 5 5 5 5 6 6 7 7 8 8 8 8 9 9 10 11 12 13 12 11 10 10 10 10 11 12 11 11 11 10 11 10 10 11 13 15 15 17 18 19 18 16 15 15 15 16 17 18 19 20 20 20 20 20 19 19 19 19 19 19 19 19 19 19 18 17 16 15 15 16 16 17 18
19 20 20 20 19 18 16 14 11 8 6 5 5 5 5 6 6 6 7 7 8 8 8 9 9 10 10 11 12 13 14 14 13 12 12 12 12 12 12 12 12 11 11 11 11 11 12 13 15 16 16 17 17 17 17 16 16 17 18 19 20 20 20 20 20 19 19 19 20 20 20 20 21 21 21 20 19 17 16 16 16 17 17 17 17 18
20 20 19 19 17 15 13 11 8 7 6 6 6 7 7 7 8 8 8 9 9 10 10 11 11 12 13 14 15 15 16 16 16 16 15 15 15 15 14 14 14 13 12 12 12 13 13 14 15 16 15 15 15 15 17 18 19 19 20 20 20 20 20 20 19 18 18 19 20 20 21 21 21 21 21 20 18 18 18 18 18 18 18 18 17 18
19 18 16 15 13 11 9 8 7 6 6 7 7 8 8 9 10 10 10 11 12 12 12 13 14 14 15 15 16 17 17 17 17 17 17 16 16 16 17 17 16 15 14 14 14 14 14 14 14 13 14 15 16 16 17 18 19 20 21 21 21 20 20 18 17 17 17 19 20 21 21 21 21 21 20 20 19 19 20 20 19 18 18 17 17 17
15 14 12 11 9 8 6 6 6 6 6 7 8 9 10 11 11 12 12 13 13 14 14 15 15 15 16 16 16 17 17 17 17 17 16 16 16 17 17 17 17 16 16 16 15 15 15 14 13 13 13 15 17 18 18 18 19 20 21 22 22 20 18 17 16 17 18 19 20 21 21 20 20 20 20 20 20 20 20 19 19 18 17 17 18 18
12 10 9 7 6 6 5 6 6 7 7 8 9 10 11 12 12 13 13 13 14 14 14 15 15 15 16 16 16 16 16 16 15 15 15 14 15 15 16 16 17 17 16 16 16 16 16 15 16 16 16 16 17 18 19 19 19 19 20 20 20 20 18 18 18 19 19 19 19 19 19 19 19 19 19 19 19 19 19 19 19 18 18 18 18 19
8 7 6 5 5 5 5 6 7 8 9 10 10 11 11 12 12 12 12 12 12 13 13 13 13 14 14 14 14 14 14 14 13 13 12 12 12 12 13 14 15 15 15 15 16 16 16 16 17 17 17 17 18 19 20 20 20 19 19 19 20 22 22 21 19 18 18 17 17 17 18 18 19 19 20 20 20 20 20 20 20 20 20 20 19 19
7 7 6 6 6 6 7 8 9 9 10 11 11 11 11 11 11 12 12 12 11 10 10 10 10 11 12 12 12 12 12 11 10 9 9 9 9 9 11 12 12 13 14 15 16 16 16 16 17 17 17 17 18 19 20 21 20 19 18 19 21 22 22 20 18 16 16 17 18 18 18 19 20 20 21 21 21 21 21 21 21 21 20 20 20 20
9 8 8 8 8 8 9 9 9 10 10 11 10 10 9 9 10 10 11 11 10 9 8 8 9 10 12 13 13 11 9 8 7 6 6 6 7 8 9 10 11 12 13 15 16 16 17 17 17 17 18 18 18 19 21 22 21 20 19 19 20 19 18 19 18 17 17 18 19 19 20 20 20 21 21 21 22 22 22 22 22 21 21 21 21 21
9 9 8 8 8 9 9 9 9 9 10 11 10 10 8 8 8 9 9 10 10 9 8 8 8 10 12 13 13 11 9 8 6 5 5 6 7 8 9 10 11 12 13 15 16 17 17 17 17 18 18 18 18 20 21 22 22 21 21 20 19 18 18 20 20 20 20 20 19 19 19 20 21 22 22 22 22 22 22 22 23 23 22 22 22 23
9 9 9 8 7 7 8 8 9 10 11 11 11 10 9 7 7 8 8 9 9 8 7 7 8 10 10 10 10 10 9 9 8 7 6 6 6 7 8 9 10 11 12 14 16 17 17 17 17 18 17 17 18 20 21 21 22 22 21 20 19 19 20 21 21 20 20 20 20 20 20 21 21 21 22 22 22 22 22 22 22 23 23 23 23 24
9 9 9 9 8 8 8 9 9 10 11 12 12 11 9 8 7 7 7 8 8 8 7 7 8 9 9 10 10 10 11 11 11 10 10 9 8 7 8 8 9 10 12 13 15 17 18 18 19 18 18 18 19 20 21 21 21 21 21 20 19 20 20 20 20 20 20 20 21 21 21 21 21 21 21 22 23 23 23 22 22 22 22 23 23 24
9 9 9 9 8 8 9 9 9 10 11 12 12 12 10 9 7 7 6 6 7 7 7 8 8 9 10 10 11 11 12 12 13 13 13 12 11 9 8 8 8 9 11 12 14 16 17 18 19 20 19 19 20 20 21 20 20 20 20 20 20 20 20 20 20 20 20 20 21 21 21 21 21 21 22 23 24 24 24 23 22 22 22 22 23 24
10 9 9 9 8 9 9 10 10 10 11 12 13 13 12 10 8 7 6 6 6 7 8 9 9 10 10 11 11 11 12 12 13 14 14 14 14 12 11 10 9 10 11 12 14 15 17 18 19 20 21 21 21 21 21 21 20 20 20 20 20 20 20 21 21 20 20 20 21 21 22 21 21 21 22 23 25 26 26 25 24 23 22 22 23 23
10 10 10 10 10 10 11 10 10 11 11 12 13 13 12 11 9 8 7 6 7 8 9 9 10 10 11 11 12 11 12 12 13 14 14 14 14 14 13 13 13 13 14 14 15 16 16 17 18 19 20 21 22 22 23 21 21 20 20 19 19 19 20 21 21 20 20 20 21 22 22 22 22 22 22 23 25 27 28 27 26 24 22 21 21 22
12 11 12 12 12 12 12 11 11 11 11 12 12 12 12 11 10 8 7 7 7 8 9 10 10 11 11 12 12 12 12 12 13 14 14 13 13 13 14 14 14 15 15 15 14 14 15 15 16 17 17 19 21 22 23 23 22 21 20 20 19 19 20 21 22 22 21 22 23 24 24 23 23 23 22 22 24 26 28 27 26 24 22 21 21 22
12 12 13 13 13 13 13 12 12 11 12 11 11 11 11 11 10 9 9 8 8 9 10 10 11 11 12 12 12 12 12 12 13 13 13 13 13 13 14 14 14 14 14 13 13 13 12 12 13 14 15 15 16 18 21 22 22 21 21 21 21 20 20 22 23 23 23 24 24 23 23 22 22 21 20 20 22 24 26 27 26 25 23 22 22 23
Wind_Direction
316 319 323 322 295 235 190 188 190 190 186 183 179 177 180 184 188 192 196 200 204 207 212 218 225 235 246 257 267 274 278 280 280 276 271 262 250 240 238 243 250 255 259 262 264 266 267 267 269 272 275 278 280 281 281 280 280 280 280 279 279 278 277 277 277 278 278 279 280 280 281 281 282 280 279 279 279 280 280 278 279 279 279 278 277 277
321 324 323 312 268 217 186 177 176 177 177 176 176 176 179 184 190 197 203 209 215 224 233 245 257 267 276 282 285 286 286 283 279 271 260 247 237 236 241 248 254 257 260 262 263 264 266 269 273 277 281 284 285 284 283 283 281 280 279 278 277 276 275 275 275 276 276 277 277 278 278 279 278 278 278 280 280 279 278 278 278 277 276 276 275 274
328 313 274 252 231 211 193 180 176 175 176 177 180 183 184 190 196 203 210 219 229 241 254 266 275 281 285 287 287 286 283 277 269 255 240 230 231 239 247 253 257 259 260 260 261 264 268 274 279 283 286 287 287 286 285 283 281 279 277 276 275 274 274 274 274 274 275 275 276 277 278 278 278 279 279 278 278 277 276 275 274 273 272 272 271 271
284 210 209 214 213 208 202 195 191 189 191 192 194 198 202 207 214 222 232 241 251 259 266 272 276 279 281 281 280 278 273 263 248 232 222 223 234 246 253 259 262 263 262 262 264 268 274 279 283 287 289 290 289 288 285 282 280 278 276 274 273 273 273 273 274 274 275 275 277 278 278 278 278 278 278 277 276 276 275 274 273 272 272 271 272 272
190 194 206 206 205 205 209 207 206 208 211 215 220 227 233 237 242 249 255 260 265 269 271 273 274 274 273 272 269 263 253 237 222 213 215 224 239 253 261 264 264 262 262 264 268 274 279 283 287 289 292 293 291 289 285 282 279 277 275 274 273 273 273 273 273 274 276 275 276 278 278 278 278 278 277 276 275 275 275 275 274 274 274 274 274 274
199 203 212 210 206 207 214 215 216 219 225 231 238 244 249 253 257 261 265 268 270 270 270 269 267 264 258 250 240 228 215 208 208 213 223 241 257 265 266 262 258 256 259 265 272 278 282 286 290 292 294 294 291 288 284 280 277 275 274 274 274 274 273 273 274 274 275 276 276 276 277 277 277 277 276 276 275 274 274 274 274 274 274 274 274 274
210 215 219 215 215 216 220 223 226 229 233 239 244 249 252 255 258 261 263 264 264 263 259 253 246 237 225 214 204 200 200 205 210 219 230 247 258 262 257 250 248 251 258 265 273 279 284 288 292 293 293 292 289 285 281 277 274 273 273 273 273 274 274 274 275 275 275 276 276 276 276 276 275 275 275 275 274 274 274 273 273 273 272 273 273 273
199 210 216 213 214 217 221 225 229 232 233 236 242 247 249 251 252 252 252 251 248 240 231 223 216 208 202 202 204 208 213 219 223 227 231 236 241 243 243 245 248 253 260 268 275 281 285 288 290 291 290 288 284 280 276 273 271 270 270 271 271 271 273 274 275 274 275 275 275 275 275 275 274 273 273 273 273 273 272 272 272 272 272 272 272 272
192 189 196 201 201 197 194 199 203 206 206 212 217 223 225 225 227 228 227 223 220 216 212 209 208 208 210 215 221 226 229 232 234 236 237 238 239 241 244 248 254 260 267 273 279 283 286 288 288 287 285 281 277 274 271 269 268 268 268 268 268 269 270 271 272 273 273 273 274 274 274 274 274 273 273 272 272 271 271 270 270 270 270 271 271 271
196 187 178 178 180 176 163 160 162 167 170 176 184 192 195 192 194 198 203 205 208 212 217 221 226 228 230 233 235 237 238 238 237 238 240 242 244 246 250 255 260 267 273 278 283 287 289 290 288 285 281 277 272 269 266 265 265 265 265 265 266 268 269 270 271 272 272 273 273 273 274 274 273 273 272 271 270 269 269 269 269 269 269 270 270 271
181 183 172 165 164 163 156 151 153 158 164 172 183 196 205 207 209 214 219 224 227 231 236 241 246 248 247 245 244 244 244 242 240 239 242 245 248 252 257 262 268 273 278 283 288 292 293 293 290 286 281 275 270 266 263 261 261 262 263 265 267 269 270 272 272 272 272 272 273 273 273 273 272 271 270 269 269 268 268 268 268 268 269 270 270 271
166 170 170 163 160 157 155 156 162 171 184 200 225 239 238 237 239 245 249 253 257 261 263 262 260 258 255 252 250 250 249 245 240 239 243 248 253 259 264 269 273 277 281 286 290 294 295 293 289 284 279 274 269 265 263 261 261 263 265 268 270 272 273 273 273 272 272 272 272 271 271 271 270 269 269 269 269 269 269 269 269 269 270 270 271 272
160 167 172 168 165 159 156 161 179 205 239 260 269 272 272 268 265 264 266 269 273 277 279 277 271 263 256 252 250 249 247 243 242 243 248 253 259 265 270 274 277 281 285 290 294 296 296 292 285 279 274 271 268 266 265 264 265 267 269 271 273 273 273 273 272 272 271 271 271 270 268 268 268 269 269 269 269 269 269 269 270 270 270 271 272 272
161 169 174 168 166 170 192 253 287 292 289 290 289 289 291 290 284 277 275 274 275 276 277 275 269 259 249 244 243 243 244 244 247 251 255 260 266 271 276 280 284 288 292 297 299 300 297 289 281 275 270 268 267 266 266 267 268 270 271 272 272 272 271 271 271 271 271 270 270 269 267 266 266 267 268 269 269 270 270 270 270 270 270 271 271 272
153 154 149 145 154 187 248 281 295 300 300 298 296 295 294 291 287 283 280 276 272 269 267 264 257 248 242 238 238 243 247 251 255 259 263 267 272 279 285 290 293 296 300 303 304 302 296 286 277 271 268 266 265 266 266 267 268 269 269 268 268 268 268 268 269 270 269 269 269 269 269 267 267 267 267 268 269 269 269 269 270 270 270 271 271 272
129 123 79 70 67 26 299 306 309 307 303 301 301 297 290 285 284 284 280 271 264 258 252 241 237 239 241 243 244 247 253 260 266 271 276 278 283 288 294 298 301 303 305 306 306 302 293 281 273 268 266 264 264 264 263 263 264 264 263 263 263 264 264 266 267 267 268 269 269 269 269 269 269 269 268 269 269 268 268 269 269 270 270 271 271 272
97 85 68 60 59 57 41 23 9 359 345 335 330 321 305 289 284 280 268 259 252 247 241 240 252 258 252 247 249 255 264 277 285 289 290 292 294 297 300 303 305 306 308 308 307 302 290 277 269 265 263 261 260 258 257 257 257 257 258 259 260 261 261 262 263 264 265 267 268 268 268 268 268 269 269 269 269 270 270 270 270 271 271 271 271 272
86 77 71 70 67 61 53 47 41 35 30 26 22 18 19 18 347 285 263 264 265 268 283 295 292 292 295 282 280 287 290 296 299 300 300 300 300 302 304 306 308 309 310 310 308 302 290 277 269 264 261 258 255 253 252 253 253 255 256 257 258 259 260 260 261 262 264 265 266 267 268 269 269 269 270 270 271 271 272 272 272 272 272 272 272 272
85 77 73 70 66 59 54 52 49 45 42 38 33 31 35 29 6 339 328 325 325 327 326 323 312 297 293 301 306 303 301 301 303 305 306 305 305 305 306 308 310 310 310 311 311 306 295 284 274 267 262 257 254 253 252 253 254 255 256 257 259 260 261 262 262 263 264 265 266 267 268 269 270 271 271 272 272 273 273 273 274 273 273 273 273 273
84 78 72 66 62 60 54 44 33 26 23 16 10 4 358 345 336 329 325 324 322 320 319 317 311 300 295 296 301 303 303 304 306 308 308 306 305 305 307 310 311 310 309 310 311 310 302 293 283 274 267 261 257 255 256 257 259 259 260 261 262 263 264 264 264 264 265 266 267 268 270 271 272 272 273 273 274 274 275 274 274 274 274 274 274 273
80 76 58 47 46 44 34 13 360 352 350 347 343 336 327 325 323 320 318 319 318 318 318 316 310 304 300 296 298 302 304 306 309 310 308 304 302 304 307 311 312 310 308 308 310 309 305 298 290 280 272 265 261 260 263 265 266 265 265 265 266 266 266 266 265 266 267 268 269 270 272 273 274 275 275 276 276 276 276 275 275 275 274 274 274 273
63 56 23 8 2 359 350 343 337 332 327 324 323 320 317 317 317 313 311 312 313 314 313 310 306 303 301 299 299 301 303 306 308 309 307 302 299 302 308 312 312 309 307 308 309 309 305 300 292 284 277 271 269 270 272 273 273 271 269 268 268 268 268 268 268 269 271 271 272 273 276 276 277 277 278 278 278 277 277 276 276 275 275 274 274 273
311 342 341 340 336 332 328 323 318 315 310 309 310 313 312 313 313 310 308 306 305 305 304 302 300 298 298 298 299 301 303 306 307 308 305 296 295 302 309 311 310 307 306 308 310 310 306 300 295 289 283 280 279 279 278 277 274 272 270 270 270 270 270 271 272 273 274 274 276 278 278 279 279 280 279 279 279 278 277 277 276 275 275 274 274 273
259 301 322 340 345 335 321 313 308 307 307 307 307 308 307 306 306 306 304 301 298 297 298 298 299 299 299 299 301 303 305 308 310 308 302 290 291 299 305 308 309 307 307 310 312 311 307 303 299 295 293 290 286 283 279 275 272 270 269 269 270 271 272 274 275 275 276 276 277 278 278 279 280 280 280 279 279 278 278 277 276 276 275 274 274 273
133 146 48 44 45 31 355 332 321 316 313 303 298 297 297 296 296 295 294 292 291 292 298 302 304 303 302 304 305 307 308 311 311 306 298 290 291 296 302 307 310 310 311 313 314 313 311 309 308 306 304 298 290 281 274 268 265 264 265 265 268 270 272 273 273 273 274 275 276 277 278 279 279 279 279 279 279 279 278 278 277 276 276 275 274 273
109 105 85 62 42 7 306 287 296 309 311 304 301 298 294 289 284 282 280 280 284 290 297 299 299 299 301 303 304 305 309 311 310 304 294 289 291 296 301 309 314 315 315 316 316 316 317 318 318 318 316 304 286 272 263 256 254 254 257 260 264 269 272 273 273 274 276 277 278 279 279 280 280 280 280 280 280 280 280 279 279 278 277 276 276 274
127 126 128 257 267 268 271 270 272 278 286 289 298 301 295 287 280 275 272 273 278 282 285 286 289 293 296 296 297 300 305 305 303 299 293 288 287 293 303 315 322 323 321 319 318 320 322 324 326 327 324 301 267 254 246 243 243 250 262 273 279 281 282 281 281 281 281 281 281 281 281 281 281 281 281 281 281 282 282 281 281 280 279 278 277 275
253 266 274 278 281 284 285 283 279 276 275 272 274 281 285 281 277 273 269 269 270 272 272 273 277 282 286 290 294 298 301 299 296 294 293 289 283 289 307 322 328 328 327 324 322 322 325 329 333 334 323 261 230 225 226 232 250 274 290 296 296 294 290 288 286 285 283 283 283 283 283 283 283 283 283 283 283 283 283 283 283 282 281 279 277 275
275 281 287 292 297 301 303 300 295 289 283 277 268 263 265 266 266 265 264 265 265 265 265 266 268 272 278 287 295 299 299 294 291 294 298 295 287 294 314 325 330 332 333 331 328 327 329 334 340 341 241 205 205 213 240 272 291 301 305 304 302 298 294 291 289 288 288 287 288 288 289 288 288 287 286 285 284 283 283 284 284 284 282 280 277 275
286 289 295 301 307 313 316 316 313 306 298 289 276 264 260 260 260 261 263 265 265 265 266 268 269 272 277 288 298 301 295 287 289 311 322 316 305 307 319 325 329 333 338 340 338 333 328 331 337 357 204 243 269 284 294 301 305 309 311 311 309 306 303 302 301 300 300 299 299 298 296 294 292 291 289 287 285 284 283 283 285 284 282 280 278 277
296 300 304 309 314 318 322 323 322 317 310 299 286 274 266 261 260 261 263 265 266 267 268 270 271 272 273 278 287 297 292 300 317 318 325 326 315 309 316 322 325 331 339 346 345 334 322 322 323 302 292 298 300 303 306 310 314 317 319 320 319 317 315 314 313 311 309 308 306 303 301 299 296 294 291 289 287 285 283 283 283 283 282 281 280 278
300 304 308 311 315 319 322 324 324 321 315 305 294 282 274 268 264 264 264 266 267 269 269 270 271 271 268 262 251 248 269 287 300 306 312 315 309 306 311 316 319 323 330 335 330 315 301 304 302 301 302 304 306 308 312 317 321 324 325 323 321 318 317 317 315 314 312 310 308 306 304 302 300 298 295 293 290 287 285 283 283 282 282 281 281 280
298 303 307 310 313 317 320 322 323 321 316 307 296 286 278 274 270 268 266 266 267 267 268 269 269 269 267 263 259 259 266 277 288 296 302 306 304 303 306 309 310 312 314 314 306 290 278 283 293 300 303 305 307 310 314 317 320 321 321 319 316 315 315 315 314 313 312 311 310 309 307 306 304 303 301 298 296 293 289 287 284 282 281 281 281 281
298 302 306 308 311 314 317 320 320 318 312 304 293 282 275 272 269 267 265 264 264 265 265 266 267 267 267 267 266 266 269 275 282 290 297 299 298 297 300 300 300 302 304 303 299 291 283 283 290 298 303 305 306 306 308 312 314 315 314 312 310 310 311 313 314 314 314 313 312 311 310 310 308 307 305 304 302 299 296 292 288 284 282 280 280 281
299 302 305 307 310 313 315 317 316 312 303 291 279 272 268 266 265 265 264 264 264 264 264 266 267 268 268 269 269 269 272 276 280 284 287 288 288 290 292 291 292 294 296 295 295 293 290 289 290 295 300 303 304 304 304 307 310 310 308 307 307 308 310 313 315 316 315 315 313 313 312 311 310 309 307 306 305 302 299 295 290 286 282 279 278 278
300 302 304 307 309 311 313 313 310 301 285 272 266 264 262 262 262 263 265 267 267 268 268 269 269 270 271 272 273 274 277 280 281 280 278 278 279 281 283 283 284 286 287 288 289 289 290 292 293 294 296 298 300 302 303 306 307 307 306 306 307 309 311 313 315 315 315 313 312 311 311 310 309 308 307 306 304 301 295 291 288 285 283 280 278 275
302 304 306 307 309 311 311 309 302 290 273 262 260 261 260 261 262 263 266 268 270 272 272 273 273 273 274 274 276 277 280 281 280 279 277 275 275 273 273 275 277 278 278 279 282 286 288 291 293 294 293 291 292 297 302 306 307 307 306 307 308 309 310 312 313 313 311 309 308 307 307 306 305 305 305 305 303 299 295 292 290 288 287 284 280 277
305 306 307 308 309 310 309 303 295 284 273 265 263 264 264 264 264 266 268 270 272 273 274 275 275 276 276 276 276 277 278 279 279 278 277 276 273 271 270 271 272 273 271 271 274 279 283 287 290 293 292 290 290 292 297 303 306 306 306 307 307 307 308 310 311 309 307 304 303 303 302 302 302 303 303 303 302 301 299 297 296 294 292 288 285 282
307 308 308 309 308 307 303 296 290 284 279 275 273 271 271 271 272 273 274 275 275 275 276 276 276 276 276 275 275 276 276 276 277 277 276 274 272 270 268 268 268 269 269 269 270 272 273 276 279 283 288 291 293 294 297 299 301 303 305 307 307 305 306 307 307 305 303 301 301 300 301 301 302 302 301 301 301 299 298 296 295 293 291 290 288 286
306 307 308 308 307 304 299 295 290 287 283 281 279 278 279 280 280 280 279 279 279 279 278 278 277 277 276 275 274 274 275 276 277 277 275 272 270 268 266 266 267 268 270 270 269 268 267 268 271 274 278 284 289 293 295 296 297 300 304 305 305 303 304 304 303 302 300 300 299 299 300 301 301 300 298 297 296 294 293 292 291 290 288 287 287 286
301 301 302 302 301 298 295 292 289 286 284 283 283 285 287 288 288 287 285 282 281 280 279 278 277 276 275 273 273 273 274 276 276 275 273 270 266 264 264 265 267 269 271 270 269 266 264 265 268 271 274 278 283 287 289 291 293 296 298 298 297 298 300 301 301 300 300 299 299 299 299 298 298 296 295 294 293 292 291 290 289 289 287 285 283 282
291 291 292 293 294 293 291 288 287 287 287 288 288 290 293 296 298 297 294 292 289 285 282 280 278 277 275 273 272 273 274 276 275 273 270 266 263 261 262 263 266 269 271 270 268 266 264 264 266 269 273 277 281 285 286 288 290 291 291 291 294 297 300 299 299 299 300 299 299 298 297 295 294 294 294 294 293 292 291 289 287 286 284 282 279 277
287 289 291 293 294 291 287 288 291 294 293 292 291 292 298 303 305 303 301 300 299 296 295 292 290 290 289 288 287 287 286 282 279 275 271 265 261 260 261 264 266 267 269 269 268 267 267 267 266 267 270 275 278 280 283 286 288 289 288 288 291 295 297 297 299 300 299 298 297 296 295 295 295 296 296 294 292 291 289 287 285 283 280 278 277 276
291 293 295 297 298 300 299 299 299 298 296 294 293 294 300 307 308 304 302 301 300 300 301 302 302 302 302 302 305 307 305 299 292 283 276 269 264 262 264 265 265 266 267 269 268 268 270 270 269 269 271 273 275 276 279 283 285 287 287 287 287 285 285 289 295 298 297 296 295 294 294 295 296 296 295 293 291 290 288 286 285 283 281 279 278 277
290 291 292 294 297 299 300 299 298 297 296 295 295 297 302 309 309 305 302 300 298 299 302 307 311 311 307 302 305 309 306 302 297 292 287 282 277 274 272 272 272 272 271 272 272 271 270 270 271 273 275 274 273 273 275 278 282 284 285 286 285 283 282 285 289 292 293 293 293 293 294 295 296 295 294 293 291 290 288 286 285 284 283 282 281 279
284 285 286 287 288 290 292 293 296 298 299 299 298 299 304 310 309 302 297 296 296 298 303 308 311 307 298 297 299 302 302 300 299 299 300 300 297 293 288 284 282 282 282 281 280 278 275 272 273 275 278 277 275 272 272 274 277 280 283 284 285 285 285 286 286 287 288 290 291 292 294 296 296 294 292 291 291 291 289 287 285 284 284 283 282 280
283 285 287 289 291 292 292 294 296 298 298 298 298 299 304 311 310 303 294 292 295 300 304 306 302 294 288 291 294 297 299 299 300 302 305 308 310 309 304 298 293 290 289 289 288 285 282 279 278 276 274 274 275 275 274 273 274 276 279 282 284 285 286 286 286 286 286 287 288 290 294 295 294 291 291 291 292 291 290 288 287 285 284 283 282 281
281 284 287 289 291 290 291 292 294 294 294 294 296 299 303 310 313 309 303 298 298 301 301 298 294 289 287 288 290 292 295 296 297 300 303 307 311 314 315 314 310 304 299 297 294 291 288 284 280 276 270 267 268 272 275 275 274 274 277 280 282 283 283 285 286 287 287 286 287 289 291 291 289 289 290 292 293 292 291 290 288 287 285 284 283 281
275 277 280 282 284 285 287 289 291 292 292 294 298 300 303 309 311 309 305 303 302 300 296 292 290 289 289 289 290 291 291 292 294 296 299 303 308 312 314 314 314 312 309 304 300 295 291 286 280 274 268 263 262 265 271 273 274 275 276 277 278 279 281 283 285 287 287 287 287 289 290 287 285 285 287 288 289 291 291 290 289 288 286 284 283 281
269 273 276 278 280 282 284 286 287 287 289 291 294 296 299 302 305 305 304 301 298 295 292 290 289 289 289 290 291 291 291 291 292 294 296 300 304 307 308 310 311 310 308 306 303 299 295 290 285 278 271 263 260 261 265 269 272 274 275 274 275 276 279 281 284 286 287 287 288 288 288 287 285 284 283 282 284 287 289 290 290 289 288 286 284 282
270 272 274 276 277 279 281 281 282 282 283 285 288 290 292 293 295 296 297 294 291 289 287 287 286 286 287 288 289 289 289 289 289 290 292 296 300 302 303 304 305 305 305 304 303 301 300 297 294 290 283 270 260 258 261 265 269 273 274 275 275 276 278 280 283 286 288 288 289 289 289 287 286 283 280 279 281 285 288 289 289 290 289 288 287 284